Year,Month,Day,Hour,Minute,Value (Times are PST for temperature in C)
2017,10,26,00,00,5.70
2017,10,26,00,01,5.60
2017,10,26,00,02,5.60
2017,10,26,00,03,5.60
2017,10,26,00,04,5.60
2017,10,26,00,05,5.60
2017,10,26,00,06,5.60
2017,10,26,00,07,5.60
2017,10,26,00,08,5.60
2017,10,26,00,09,5.60
2017,10,26,00,10,5.60
2017,10,26,00,11,5.70
2017,10,26,00,12,5.70
2017,10,26,00,13,5.70
2017,10,26,00,14,5.70
2017,10,26,00,15,5.70
2017,10,26,00,16,5.70
2017,10,26,00,17,5.70
2017,10,26,00,18,5.70
2017,10,26,00,19,5.60
2017,10,26,00,20,5.60
2017,10,26,00,21,5.60
2017,10,26,00,22,5.60
2017,10,26,00,23,5.70
2017,10,26,00,24,5.70
2017,10,26,00,25,5.70
2017,10,26,00,26,5.70
2017,10,26,00,27,5.60
2017,10,26,00,28,5.60
2017,10,26,00,29,5.60
2017,10,26,00,30,5.50
2017,10,26,00,31,5.50
2017,10,26,00,32,5.50
2017,10,26,00,33,5.50
2017,10,26,00,34,5.50
2017,10,26,00,35,5.50
2017,10,26,00,36,5.50
2017,10,26,00,37,5.60
2017,10,26,00,38,5.60
2017,10,26,00,39,5.60
2017,10,26,00,40,5.60
2017,10,26,00,41,5.60
2017,10,26,00,42,5.60
2017,10,26,00,43,5.50
2017,10,26,00,44,5.50
2017,10,26,00,45,5.50
2017,10,26,00,46,5.50
2017,10,26,00,47,5.50
2017,10,26,00,48,5.40
2017,10,26,00,49,5.40
2017,10,26,00,50,5.40
2017,10,26,00,51,5.30
2017,10,26,00,52,5.30
2017,10,26,00,53,5.30
2017,10,26,00,54,5.30
2017,10,26,00,55,5.30
2017,10,26,00,56,5.30
2017,10,26,00,57,5.20
2017,10,26,00,58,5.20
2017,10,26,00,59,5.20
2017,10,26,01,00,5.20
2017,10,26,01,01,5.20
2017,10,26,01,02,5.20
2017,10,26,01,03,5.20
2017,10,26,01,04,5.30
2017,10,26,01,05,5.30
2017,10,26,01,06,5.30
2017,10,26,01,07,5.30
2017,10,26,01,08,5.30
2017,10,26,01,09,5.30
2017,10,26,01,10,5.30
2017,10,26,01,11,5.40
2017,10,26,01,12,5.40
2017,10,26,01,13,5.40
2017,10,26,01,14,5.40
2017,10,26,01,15,5.40
2017,10,26,01,16,5.40
2017,10,26,01,17,5.40
2017,10,26,01,18,5.30
2017,10,26,01,19,5.30
2017,10,26,01,20,5.30
2017,10,26,01,21,5.30
2017,10,26,01,22,5.30
2017,10,26,01,23,5.30
2017,10,26,01,24,5.20
2017,10,26,01,25,5.20
2017,10,26,01,26,5.20
2017,10,26,01,27,5.20
2017,10,26,01,28,5.20
2017,10,26,01,29,5.20
2017,10,26,01,30,5.20
2017,10,26,01,31,5.20
2017,10,26,01,32,5.10
2017,10,26,01,33,5.10
2017,10,26,01,34,5.10
2017,10,26,01,35,5.20
2017,10,26,01,36,5.20
2017,10,26,01,37,5.20
2017,10,26,01,38,5.20
2017,10,26,01,39,5.20
2017,10,26,01,40,5.20
2017,10,26,01,41,5.20
2017,10,26,01,42,5.20
2017,10,26,01,43,5.20
2017,10,26,01,44,5.20
2017,10,26,01,45,5.20
2017,10,26,01,46,5.20
2017,10,26,01,47,5.30
2017,10,26,01,48,5.30
2017,10,26,01,49,5.20
2017,10,26,01,50,5.20
2017,10,26,01,51,5.20
2017,10,26,01,52,5.20
2017,10,26,01,53,5.20
2017,10,26,01,54,5.20
2017,10,26,01,55,5.20
2017,10,26,01,56,5.20
2017,10,26,01,57,5.20
2017,10,26,01,58,5.20
2017,10,26,01,59,5.20
2017,10,26,02,00,5.20
2017,10,26,02,01,5.20
2017,10,26,02,02,5.20
2017,10,26,02,03,5.20
2017,10,26,02,04,5.20
2017,10,26,02,05,5.20
2017,10,26,02,06,5.20
2017,10,26,02,07,5.20
2017,10,26,02,08,5.10
2017,10,26,02,09,5.10
2017,10,26,02,10,5.10
2017,10,26,02,11,5.10
2017,10,26,02,12,5.10
2017,10,26,02,13,5.10
2017,10,26,02,14,5.10
2017,10,26,02,15,5.10
2017,10,26,02,16,5.10
2017,10,26,02,17,5.10
2017,10,26,02,18,5.10
2017,10,26,02,19,5.10
2017,10,26,02,20,5.10
2017,10,26,02,21,5.10
2017,10,26,02,22,5.00
2017,10,26,02,23,5.00
2017,10,26,02,24,5.00
2017,10,26,02,25,5.00
2017,10,26,02,26,4.90
2017,10,26,02,27,4.90
2017,10,26,02,28,4.90
2017,10,26,02,29,4.90
2017,10,26,02,30,4.90
2017,10,26,02,31,4.90
2017,10,26,02,32,4.80
2017,10,26,02,33,4.80
2017,10,26,02,34,4.80
2017,10,26,02,35,4.80
2017,10,26,02,36,4.80
2017,10,26,02,37,4.80
2017,10,26,02,38,4.70
2017,10,26,02,39,4.70
2017,10,26,02,40,4.70
2017,10,26,02,41,4.70
2017,10,26,02,42,4.70
2017,10,26,02,43,4.70
2017,10,26,02,44,4.70
2017,10,26,02,45,4.70
2017,10,26,02,46,4.70
2017,10,26,02,47,4.70
2017,10,26,02,48,4.70
2017,10,26,02,49,4.70
2017,10,26,02,50,4.70
2017,10,26,02,51,4.70
2017,10,26,02,52,4.70
2017,10,26,02,53,4.70
2017,10,26,02,54,4.70
2017,10,26,02,55,4.70
2017,10,26,02,56,4.70
2017,10,26,02,57,4.70
2017,10,26,02,58,4.70
2017,10,26,02,59,4.60
2017,10,26,03,00,4.60
2017,10,26,03,01,4.60
2017,10,26,03,02,4.60
2017,10,26,03,03,4.60
2017,10,26,03,04,4.60
2017,10,26,03,05,4.60
2017,10,26,03,06,4.60
2017,10,26,03,07,4.60
2017,10,26,03,08,4.60
2017,10,26,03,09,4.60
2017,10,26,03,10,4.60
2017,10,26,03,11,4.50
2017,10,26,03,12,4.50
2017,10,26,03,13,4.50
2017,10,26,03,14,4.50
2017,10,26,03,15,4.60
2017,10,26,03,16,4.50
2017,10,26,03,17,4.50
2017,10,26,03,18,4.50
2017,10,26,03,19,4.50
2017,10,26,03,20,4.50
2017,10,26,03,21,4.50
2017,10,26,03,22,4.50
2017,10,26,03,23,4.50
2017,10,26,03,24,4.50
2017,10,26,03,25,4.50
2017,10,26,03,26,4.50
2017,10,26,03,27,4.50
2017,10,26,03,28,4.50
2017,10,26,03,29,4.50
2017,10,26,03,30,4.40
2017,10,26,03,31,4.40
2017,10,26,03,32,4.40
2017,10,26,03,33,4.40
2017,10,26,03,34,4.40
2017,10,26,03,35,4.40
2017,10,26,03,36,4.40
2017,10,26,03,37,4.40
2017,10,26,03,38,4.30
2017,10,26,03,39,4.30
2017,10,26,03,40,4.30
2017,10,26,03,41,4.30
2017,10,26,03,42,4.30
2017,10,26,03,43,4.30
2017,10,26,03,44,4.30
2017,10,26,03,45,4.30
2017,10,26,03,46,4.30
2017,10,26,03,47,4.30
2017,10,26,03,48,4.30
2017,10,26,03,49,4.30
2017,10,26,03,50,4.30
2017,10,26,03,51,4.30
2017,10,26,03,52,4.30
2017,10,26,03,53,4.30
2017,10,26,03,54,4.30
2017,10,26,03,55,4.30
2017,10,26,03,56,4.30
2017,10,26,03,57,4.20
2017,10,26,03,58,4.20
2017,10,26,03,59,4.20
2017,10,26,04,00,4.20
2017,10,26,04,01,4.20
2017,10,26,04,02,4.20
2017,10,26,04,03,4.20
2017,10,26,04,04,4.10
2017,10,26,04,05,4.10
2017,10,26,04,06,4.10
2017,10,26,04,07,4.10
2017,10,26,04,08,4.10
2017,10,26,04,09,4.10
2017,10,26,04,10,4.10
2017,10,26,04,11,4.10
2017,10,26,04,12,4.10
2017,10,26,04,13,4.10
2017,10,26,04,14,4.10
2017,10,26,04,15,4.20
2017,10,26,04,16,4.20
2017,10,26,04,17,4.10
2017,10,26,04,18,4.10
2017,10,26,04,19,4.10
2017,10,26,04,20,4.10
2017,10,26,04,21,4.20
2017,10,26,04,22,4.20
2017,10,26,04,23,4.20
2017,10,26,04,24,4.20
2017,10,26,04,25,4.20
2017,10,26,04,26,4.20
2017,10,26,04,27,4.20
2017,10,26,04,28,4.20
2017,10,26,04,29,4.20
2017,10,26,04,30,4.20
2017,10,26,04,31,4.20
2017,10,26,04,32,4.20
2017,10,26,04,33,4.20
2017,10,26,04,34,4.20
2017,10,26,04,35,4.20
2017,10,26,04,36,4.20
2017,10,26,04,37,4.10
2017,10,26,04,38,4.10
2017,10,26,04,39,4.10
2017,10,26,04,40,4.10
2017,10,26,04,41,4.10
2017,10,26,04,42,4.10
2017,10,26,04,43,4.10
2017,10,26,04,44,4.10
2017,10,26,04,45,4.10
2017,10,26,04,46,4.10
2017,10,26,04,47,4.10
2017,10,26,04,48,4.10
2017,10,26,04,49,4.10
2017,10,26,04,50,4.10
2017,10,26,04,51,4.10
2017,10,26,04,52,4.10
2017,10,26,04,53,4.10
2017,10,26,04,54,4.10
2017,10,26,04,55,4.10
2017,10,26,04,56,4.00
2017,10,26,04,57,4.00
2017,10,26,04,58,4.00
2017,10,26,04,59,4.00
2017,10,26,05,00,4.00
2017,10,26,05,01,4.00
2017,10,26,05,02,4.00
2017,10,26,05,03,4.00
2017,10,26,05,04,3.90
2017,10,26,05,05,3.90
2017,10,26,05,06,3.90
2017,10,26,05,07,3.90
2017,10,26,05,08,3.90
2017,10,26,05,09,3.90
2017,10,26,05,10,3.90
2017,10,26,05,11,3.90
2017,10,26,05,12,3.90
2017,10,26,05,13,3.90
2017,10,26,05,14,3.90
2017,10,26,05,15,3.90
2017,10,26,05,16,3.90
2017,10,26,05,17,3.90
2017,10,26,05,18,3.90
2017,10,26,05,19,3.80
2017,10,26,05,20,3.80
2017,10,26,05,21,3.80
2017,10,26,05,22,3.80
2017,10,26,05,23,3.80
2017,10,26,05,24,3.80
2017,10,26,05,25,3.80
2017,10,26,05,26,3.80
2017,10,26,05,27,3.80
2017,10,26,05,28,3.80
2017,10,26,05,29,3.80
2017,10,26,05,30,3.80
2017,10,26,05,31,3.80
2017,10,26,05,32,3.80
2017,10,26,05,33,3.80
2017,10,26,05,34,3.70
2017,10,26,05,35,3.70
2017,10,26,05,36,3.70
2017,10,26,05,37,3.70
2017,10,26,05,38,3.70
2017,10,26,05,39,3.70
2017,10,26,05,40,3.70
2017,10,26,05,41,3.70
2017,10,26,05,42,3.70
2017,10,26,05,43,3.70
2017,10,26,05,44,3.70
2017,10,26,05,45,3.70
2017,10,26,05,46,3.70
2017,10,26,05,47,3.70
2017,10,26,05,48,3.70
2017,10,26,05,49,3.70
2017,10,26,05,50,3.70
2017,10,26,05,51,3.70
2017,10,26,05,52,3.60
2017,10,26,05,53,3.60
2017,10,26,05,54,3.60
2017,10,26,05,55,3.60
2017,10,26,05,56,3.60
2017,10,26,05,57,3.60
2017,10,26,05,58,3.60
2017,10,26,05,59,3.60
2017,10,26,06,00,3.50
2017,10,26,06,01,3.50
2017,10,26,06,02,3.50
2017,10,26,06,03,3.50
2017,10,26,06,04,3.50
2017,10,26,06,05,3.50
2017,10,26,06,06,3.50
2017,10,26,06,07,3.50
2017,10,26,06,08,3.50
2017,10,26,06,09,3.50
2017,10,26,06,10,3.50
2017,10,26,06,11,3.50
2017,10,26,06,12,3.50
2017,10,26,06,13,3.50
2017,10,26,06,14,3.50
2017,10,26,06,15,3.50
2017,10,26,06,16,3.50
2017,10,26,06,17,3.50
2017,10,26,06,18,3.50
2017,10,26,06,19,3.50
2017,10,26,06,20,3.50
2017,10,26,06,21,3.40
2017,10,26,06,22,3.40
2017,10,26,06,23,3.40
2017,10,26,06,24,3.40
2017,10,26,06,25,3.40
2017,10,26,06,26,3.40
2017,10,26,06,27,3.40
2017,10,26,06,28,3.40
2017,10,26,06,29,3.40
2017,10,26,06,30,3.40
2017,10,26,06,31,3.40
2017,10,26,06,32,3.40
2017,10,26,06,33,3.40
2017,10,26,06,34,3.40
2017,10,26,06,35,3.40
2017,10,26,06,36,3.40
2017,10,26,06,37,3.40
2017,10,26,06,38,3.40
2017,10,26,06,39,3.40
2017,10,26,06,40,3.40
2017,10,26,06,41,3.40
2017,10,26,06,42,3.40
2017,10,26,06,43,3.40
2017,10,26,06,44,3.40
2017,10,26,06,45,3.40
2017,10,26,06,46,3.30
2017,10,26,06,47,3.30
2017,10,26,06,48,3.30
2017,10,26,06,49,3.30
2017,10,26,06,50,3.30
2017,10,26,06,51,3.30
2017,10,26,06,52,3.30
2017,10,26,06,53,3.30
2017,10,26,06,54,3.30
2017,10,26,06,55,3.30
2017,10,26,06,56,3.30
2017,10,26,06,57,3.30
2017,10,26,06,58,3.30
2017,10,26,06,59,3.40
2017,10,26,07,00,3.40
2017,10,26,07,01,3.40
2017,10,26,07,02,3.30
2017,10,26,07,03,3.30
2017,10,26,07,04,3.30
2017,10,26,07,05,3.30
2017,10,26,07,06,3.30
2017,10,26,07,07,3.30
2017,10,26,07,08,3.30
2017,10,26,07,09,3.30
2017,10,26,07,10,3.30
2017,10,26,07,11,3.30
2017,10,26,07,12,3.30
2017,10,26,07,13,3.30
2017,10,26,07,14,3.30
2017,10,26,07,15,3.30
2017,10,26,07,16,3.30
2017,10,26,07,17,3.30
2017,10,26,07,18,3.30
2017,10,26,07,19,3.30
2017,10,26,07,20,3.30
2017,10,26,07,21,3.30
2017,10,26,07,22,3.30
2017,10,26,07,23,3.30
2017,10,26,07,24,3.30
2017,10,26,07,25,3.30
2017,10,26,07,26,3.30
2017,10,26,07,27,3.30
2017,10,26,07,28,3.30
2017,10,26,07,29,3.30
2017,10,26,07,30,3.30
2017,10,26,07,31,3.30
2017,10,26,07,32,3.30
2017,10,26,07,33,3.30
2017,10,26,07,34,3.20
2017,10,26,07,35,3.20
2017,10,26,07,36,3.20
2017,10,26,07,37,3.20
2017,10,26,07,38,3.20
2017,10,26,07,39,3.20
2017,10,26,07,40,3.20
2017,10,26,07,41,3.20
2017,10,26,07,42,3.20
2017,10,26,07,43,3.20
2017,10,26,07,44,3.20
2017,10,26,07,45,3.20
2017,10,26,07,46,3.20
2017,10,26,07,47,3.20
2017,10,26,07,48,3.20
2017,10,26,07,49,3.20
2017,10,26,07,50,3.30
2017,10,26,07,51,3.30
2017,10,26,07,52,3.30
2017,10,26,07,53,3.20
2017,10,26,07,54,3.20
2017,10,26,07,55,3.20
2017,10,26,07,56,3.20
2017,10,26,07,57,3.20
2017,10,26,07,58,3.20
2017,10,26,07,59,3.20
2017,10,26,08,00,3.20
2017,10,26,08,01,3.20
2017,10,26,08,02,3.20
2017,10,26,08,03,3.20
2017,10,26,08,04,3.20
2017,10,26,08,05,3.10
2017,10,26,08,06,3.10
2017,10,26,08,07,3.10
2017,10,26,08,08,3.10
2017,10,26,08,09,3.10
2017,10,26,08,10,3.10
2017,10,26,08,11,3.10
2017,10,26,08,12,3.00
2017,10,26,08,13,3.00
2017,10,26,08,14,3.00
2017,10,26,08,15,3.00
2017,10,26,08,16,3.00
2017,10,26,08,17,3.00
2017,10,26,08,18,3.00
2017,10,26,08,19,3.00
2017,10,26,08,20,3.00
2017,10,26,08,21,3.00
2017,10,26,08,22,3.00
2017,10,26,08,23,3.00
2017,10,26,08,24,3.00
2017,10,26,08,25,3.00
2017,10,26,08,26,3.00
2017,10,26,08,27,3.00
2017,10,26,08,28,3.00
2017,10,26,08,29,3.00
2017,10,26,08,30,3.00
2017,10,26,08,31,3.00
2017,10,26,08,32,3.00
2017,10,26,08,33,2.90
2017,10,26,08,34,3.00
2017,10,26,08,35,3.00
2017,10,26,08,36,3.00
2017,10,26,08,37,3.00
2017,10,26,08,38,3.00
2017,10,26,08,39,2.90
2017,10,26,08,40,2.90
2017,10,26,08,41,2.90
2017,10,26,08,42,2.90
2017,10,26,08,43,2.90
2017,10,26,08,44,2.90
2017,10,26,08,45,2.90
2017,10,26,08,46,2.90
2017,10,26,08,47,2.90
2017,10,26,08,48,2.90
2017,10,26,08,49,2.90
2017,10,26,08,50,2.90
2017,10,26,08,51,2.90
2017,10,26,08,52,2.90
2017,10,26,08,53,3.00
2017,10,26,08,54,3.00
2017,10,26,08,55,3.00
2017,10,26,08,56,3.00
2017,10,26,08,57,3.00
2017,10,26,08,58,3.00
2017,10,26,08,59,3.00
2017,10,26,09,00,3.00
2017,10,26,09,01,3.00
2017,10,26,09,02,3.00
2017,10,26,09,03,3.00
2017,10,26,09,04,3.00
2017,10,26,09,05,3.00
2017,10,26,09,06,3.00
2017,10,26,09,07,3.00
2017,10,26,09,08,3.00
2017,10,26,09,09,3.00
2017,10,26,09,10,3.00
2017,10,26,09,11,3.00
2017,10,26,09,12,3.10
2017,10,26,09,13,3.10
2017,10,26,09,14,3.10
2017,10,26,09,15,3.10
2017,10,26,09,16,3.10
2017,10,26,09,17,3.20
2017,10,26,09,18,3.20
2017,10,26,09,19,3.30
2017,10,26,09,20,3.30
2017,10,26,09,21,3.40
2017,10,26,09,22,3.40
2017,10,26,09,23,3.50
2017,10,26,09,24,3.50
2017,10,26,09,25,3.60
2017,10,26,09,26,3.60
2017,10,26,09,27,3.70
2017,10,26,09,28,3.70
2017,10,26,09,29,3.80
2017,10,26,09,30,3.80
2017,10,26,09,31,3.80
2017,10,26,09,32,3.90
2017,10,26,09,33,3.90
2017,10,26,09,34,4.00
2017,10,26,09,35,4.00
2017,10,26,09,36,4.10
2017,10,26,09,37,4.10
2017,10,26,09,38,4.20
2017,10,26,09,39,4.20
2017,10,26,09,40,4.30
2017,10,26,09,41,4.30
2017,10,26,09,42,4.30
2017,10,26,09,43,4.40
2017,10,26,09,44,4.40
2017,10,26,09,45,4.50
2017,10,26,09,46,4.50
2017,10,26,09,47,4.60
2017,10,26,09,48,4.60
2017,10,26,09,49,4.70
2017,10,26,09,50,4.70
2017,10,26,09,51,4.70
2017,10,26,09,52,4.70
2017,10,26,09,53,4.70
2017,10,26,09,54,4.70
2017,10,26,09,55,4.70
2017,10,26,09,56,4.80
2017,10,26,09,57,4.80
2017,10,26,09,58,4.80
2017,10,26,09,59,4.80
2017,10,26,10,00,4.80
2017,10,26,10,01,4.80
2017,10,26,10,02,4.80
2017,10,26,10,03,4.80
2017,10,26,10,04,4.80
2017,10,26,10,05,4.90
2017,10,26,10,06,4.90
2017,10,26,10,07,4.90
2017,10,26,10,08,4.90
2017,10,26,10,09,4.90
2017,10,26,10,10,4.90
2017,10,26,10,11,4.90
2017,10,26,10,12,4.90
2017,10,26,10,13,4.90
2017,10,26,10,14,4.90
2017,10,26,10,15,4.90
2017,10,26,10,16,4.90
2017,10,26,10,17,4.90
2017,10,26,10,18,5.00
2017,10,26,10,19,5.10
2017,10,26,10,20,5.10
2017,10,26,10,21,5.20
2017,10,26,10,22,5.20
2017,10,26,10,23,5.20
2017,10,26,10,24,5.30
2017,10,26,10,25,5.40
2017,10,26,10,26,5.40
2017,10,26,10,27,5.50
2017,10,26,10,28,5.50
2017,10,26,10,29,5.50
2017,10,26,10,30,5.60
2017,10,26,10,31,5.70
2017,10,26,10,32,5.70
2017,10,26,10,33,5.80
2017,10,26,10,34,5.80
2017,10,26,10,35,5.80
2017,10,26,10,36,5.80
2017,10,26,10,37,5.90
2017,10,26,10,38,5.90
2017,10,26,10,39,5.90
2017,10,26,10,40,5.90
2017,10,26,10,41,5.90
2017,10,26,10,42,5.90
2017,10,26,10,43,6.00
2017,10,26,10,44,6.00
2017,10,26,10,45,6.10
2017,10,26,10,46,6.10
2017,10,26,10,47,6.20
2017,10,26,10,48,6.30
2017,10,26,10,49,6.30
2017,10,26,10,50,6.40
2017,10,26,10,51,6.50
2017,10,26,10,52,6.70
2017,10,26,10,53,6.70
2017,10,26,10,54,6.80
2017,10,26,10,55,6.90
2017,10,26,10,56,6.90
2017,10,26,10,57,6.90
2017,10,26,10,58,7.00
2017,10,26,10,59,7.10
2017,10,26,11,00,7.10
2017,10,26,11,01,7.20
2017,10,26,11,02,7.30
2017,10,26,11,03,7.40
2017,10,26,11,04,7.50
2017,10,26,11,05,7.60
2017,10,26,11,06,7.70
2017,10,26,11,07,7.70
2017,10,26,11,08,7.80
2017,10,26,11,09,7.90
2017,10,26,11,10,7.90
2017,10,26,11,11,8.00
2017,10,26,11,12,8.00
2017,10,26,11,13,8.10
2017,10,26,11,14,8.10
2017,10,26,11,15,8.10
2017,10,26,11,16,8.20
2017,10,26,11,17,8.20
2017,10,26,11,18,8.20
2017,10,26,11,19,8.20
2017,10,26,11,20,8.20
2017,10,26,11,21,8.20
2017,10,26,11,22,8.20
2017,10,26,11,23,8.20
2017,10,26,11,24,8.20
2017,10,26,11,25,8.20
2017,10,26,11,26,8.20
2017,10,26,11,27,8.20
2017,10,26,11,28,8.30
2017,10,26,11,29,8.30
2017,10,26,11,30,8.30
2017,10,26,11,31,8.30
2017,10,26,11,32,8.30
2017,10,26,11,33,8.30
2017,10,26,11,34,8.30
2017,10,26,11,35,8.30
2017,10,26,11,36,8.30
2017,10,26,11,37,8.40
2017,10,26,11,38,8.50
2017,10,26,11,39,8.50
2017,10,26,11,40,8.60
2017,10,26,11,41,8.60
2017,10,26,11,42,8.70
2017,10,26,11,43,8.70
2017,10,26,11,44,8.70
2017,10,26,11,45,8.70
2017,10,26,11,46,8.80
2017,10,26,11,47,8.80
2017,10,26,11,48,8.90
2017,10,26,11,49,9.00
2017,10,26,11,50,9.10
2017,10,26,11,51,9.20
2017,10,26,11,52,9.20
2017,10,26,11,53,9.30
2017,10,26,11,54,9.30
2017,10,26,11,55,9.40
2017,10,26,11,56,9.40
2017,10,26,11,57,9.50
2017,10,26,11,58,9.50
2017,10,26,11,59,9.60
2017,10,26,12,00,9.60
2017,10,26,12,01,9.70
2017,10,26,12,02,9.70
2017,10,26,12,03,9.80
2017,10,26,12,04,9.80
2017,10,26,12,05,9.90
2017,10,26,12,06,9.90
2017,10,26,12,07,9.90
2017,10,26,12,08,10.00
2017,10,26,12,09,10.00
2017,10,26,12,10,10.10
2017,10,26,12,11,10.10
2017,10,26,12,12,10.10
2017,10,26,12,13,10.10
2017,10,26,12,14,10.00
2017,10,26,12,15,10.00
2017,10,26,12,16,9.90
2017,10,26,12,17,9.90
2017,10,26,12,18,9.90
2017,10,26,12,19,9.90
2017,10,26,12,20,9.80
2017,10,26,12,21,9.80
2017,10,26,12,22,9.80
2017,10,26,12,23,9.80
2017,10,26,12,24,9.80
2017,10,26,12,25,9.80
2017,10,26,12,26,9.80
2017,10,26,12,27,9.80
2017,10,26,12,28,9.80
2017,10,26,12,29,9.80
2017,10,26,12,30,9.80
2017,10,26,12,31,9.80
2017,10,26,12,32,9.80
2017,10,26,12,33,9.70
2017,10,26,12,34,9.70
2017,10,26,12,35,9.70
2017,10,26,12,36,9.70
2017,10,26,12,37,9.70
2017,10,26,12,38,9.70
2017,10,26,12,39,9.70
2017,10,26,12,40,9.70
2017,10,26,12,41,9.70
2017,10,26,12,42,9.70
2017,10,26,12,43,9.70
2017,10,26,12,44,9.70
2017,10,26,12,45,9.70
2017,10,26,12,46,9.70
2017,10,26,12,47,9.80
2017,10,26,12,48,9.80
2017,10,26,12,49,9.80
2017,10,26,12,50,9.80
2017,10,26,12,51,9.80
2017,10,26,12,52,9.90
2017,10,26,12,53,9.90
2017,10,26,12,54,9.90
2017,10,26,12,55,9.90
2017,10,26,12,56,9.90
2017,10,26,12,57,9.90
2017,10,26,12,58,9.90
2017,10,26,12,59,9.90
2017,10,26,13,00,9.90
2017,10,26,13,01,9.90
2017,10,26,13,02,9.90
2017,10,26,13,03,9.90
2017,10,26,13,04,9.90
2017,10,26,13,05,9.90
2017,10,26,13,06,10.00
2017,10,26,13,07,10.00
2017,10,26,13,08,10.10
2017,10,26,13,09,10.10
2017,10,26,13,10,10.10
2017,10,26,13,11,10.10
2017,10,26,13,12,10.10
2017,10,26,13,13,10.10
2017,10,26,13,14,10.10
2017,10,26,13,15,10.20
2017,10,26,13,16,10.20
2017,10,26,13,17,10.20
2017,10,26,13,18,10.20
2017,10,26,13,19,10.20
2017,10,26,13,20,10.20
2017,10,26,13,21,10.20
2017,10,26,13,22,10.20
2017,10,26,13,23,10.20
2017,10,26,13,24,10.20
2017,10,26,13,25,10.20
2017,10,26,13,26,10.20
2017,10,26,13,27,10.20
2017,10,26,13,28,10.30
2017,10,26,13,29,10.30
2017,10,26,13,30,10.30
2017,10,26,13,31,10.30
2017,10,26,13,32,10.40
2017,10,26,13,33,10.40
2017,10,26,13,34,10.40
2017,10,26,13,35,10.50
2017,10,26,13,36,10.50
2017,10,26,13,37,10.60
2017,10,26,13,38,10.60
2017,10,26,13,39,10.60
2017,10,26,13,40,10.70
2017,10,26,13,41,10.70
2017,10,26,13,42,10.80
2017,10,26,13,43,10.80
2017,10,26,13,44,10.80
2017,10,26,13,45,10.80
2017,10,26,13,46,10.80
2017,10,26,13,47,10.80
2017,10,26,13,48,10.80
2017,10,26,13,49,10.80
2017,10,26,13,50,10.80
2017,10,26,13,51,10.80
2017,10,26,13,52,10.90
2017,10,26,13,53,10.90
2017,10,26,13,54,10.90
2017,10,26,13,55,10.90
2017,10,26,13,56,11.00
2017,10,26,13,57,11.00
2017,10,26,13,58,11.10
2017,10,26,13,59,11.10
2017,10,26,14,00,11.10
2017,10,26,14,01,11.10
2017,10,26,14,02,11.10
2017,10,26,14,03,11.10
2017,10,26,14,04,11.10
2017,10,26,14,05,11.10
2017,10,26,14,06,11.20
2017,10,26,14,07,11.20
2017,10,26,14,08,11.20
2017,10,26,14,09,11.20
2017,10,26,14,10,11.20
2017,10,26,14,11,11.20
2017,10,26,14,12,11.30
2017,10,26,14,13,11.30
2017,10,26,14,14,11.30
2017,10,26,14,15,11.40
2017,10,26,14,16,11.40
2017,10,26,14,17,11.40
2017,10,26,14,18,11.40
2017,10,26,14,19,11.40
2017,10,26,14,20,11.40
2017,10,26,14,21,11.30
2017,10,26,14,22,11.30
2017,10,26,14,23,11.30
2017,10,26,14,24,11.30
2017,10,26,14,25,11.30
2017,10,26,14,26,11.20
2017,10,26,14,27,11.30
2017,10,26,14,28,11.20
2017,10,26,14,29,11.20
2017,10,26,14,30,11.20
2017,10,26,14,31,11.20
2017,10,26,14,32,11.20
2017,10,26,14,33,11.10
2017,10,26,14,34,11.10
2017,10,26,14,35,11.10
2017,10,26,14,36,11.10
2017,10,26,14,37,11.00
2017,10,26,14,38,11.00
2017,10,26,14,39,11.00
2017,10,26,14,40,11.00
2017,10,26,14,41,11.00
2017,10,26,14,42,10.90
2017,10,26,14,43,10.90
2017,10,26,14,44,10.90
2017,10,26,14,45,10.90
2017,10,26,14,46,10.80
2017,10,26,14,47,10.80
2017,10,26,14,48,10.80
2017,10,26,14,49,10.80
2017,10,26,14,50,10.70
2017,10,26,14,51,10.70
2017,10,26,14,52,10.60
2017,10,26,14,53,10.60
2017,10,26,14,54,10.50
2017,10,26,14,55,10.40
2017,10,26,14,56,10.40
2017,10,26,14,57,10.30
2017,10,26,14,58,10.20
2017,10,26,14,59,10.10
2017,10,26,15,00,10.00
2017,10,26,15,01,9.90
2017,10,26,15,02,9.80
2017,10,26,15,03,9.80
2017,10,26,15,04,9.70
2017,10,26,15,05,9.60
2017,10,26,15,06,9.50
2017,10,26,15,07,9.50
2017,10,26,15,08,9.40
2017,10,26,15,09,9.40
2017,10,26,15,10,9.40
2017,10,26,15,11,9.30
2017,10,26,15,12,9.30
2017,10,26,15,13,9.20
2017,10,26,15,14,9.20
2017,10,26,15,15,9.10
2017,10,26,15,16,9.10
2017,10,26,15,17,9.10
2017,10,26,15,18,9.00
2017,10,26,15,19,9.00
2017,10,26,15,20,8.90
2017,10,26,15,21,8.90
2017,10,26,15,22,8.90
2017,10,26,15,23,8.80
2017,10,26,15,24,8.80
2017,10,26,15,25,8.80
2017,10,26,15,26,8.70
2017,10,26,15,27,8.70
2017,10,26,15,28,8.70
2017,10,26,15,29,8.70
2017,10,26,15,30,8.60
2017,10,26,15,31,8.60
2017,10,26,15,32,8.60
2017,10,26,15,33,8.50
2017,10,26,15,34,8.50
2017,10,26,15,35,8.50
2017,10,26,15,36,8.50
2017,10,26,15,37,8.40
2017,10,26,15,38,8.40
2017,10,26,15,39,8.40
2017,10,26,15,40,8.40
2017,10,26,15,41,8.40
2017,10,26,15,42,8.40
2017,10,26,15,43,8.40
2017,10,26,15,44,8.40
2017,10,26,15,45,8.40
2017,10,26,15,46,8.40
2017,10,26,15,47,8.40
2017,10,26,15,48,8.40
2017,10,26,15,49,8.40
2017,10,26,15,50,8.40
2017,10,26,15,51,8.40
2017,10,26,15,52,8.40
2017,10,26,15,53,8.40
2017,10,26,15,54,8.40
2017,10,26,15,55,8.40
2017,10,26,15,56,8.40
2017,10,26,15,57,8.30
2017,10,26,15,58,8.30
2017,10,26,15,59,8.30
2017,10,26,16,00,8.30
2017,10,26,16,01,8.30
2017,10,26,16,02,8.30
2017,10,26,16,03,8.30
2017,10,26,16,04,8.30
2017,10,26,16,05,8.30
2017,10,26,16,06,8.30
2017,10,26,16,07,8.30
2017,10,26,16,08,8.30
2017,10,26,16,09,8.30
2017,10,26,16,10,8.30
2017,10,26,16,11,8.30
2017,10,26,16,12,8.30
2017,10,26,16,13,8.30
2017,10,26,16,14,8.30
2017,10,26,16,15,8.30
2017,10,26,16,16,8.30
2017,10,26,16,17,8.30
2017,10,26,16,18,8.30
2017,10,26,16,19,8.30
2017,10,26,16,20,8.30
2017,10,26,16,21,8.30
2017,10,26,16,22,8.30
2017,10,26,16,23,8.30
2017,10,26,16,24,8.30
2017,10,26,16,25,8.30
2017,10,26,16,26,8.30
2017,10,26,16,27,8.20
2017,10,26,16,28,8.20
2017,10,26,16,29,8.20
2017,10,26,16,30,8.20
2017,10,26,16,31,8.20
2017,10,26,16,32,8.20
2017,10,26,16,33,8.20
2017,10,26,16,34,8.20
2017,10,26,16,35,8.20
2017,10,26,16,36,8.20
2017,10,26,16,37,8.20
2017,10,26,16,38,8.20
2017,10,26,16,39,8.20
2017,10,26,16,40,8.20
2017,10,26,16,41,8.20
2017,10,26,16,42,8.20
2017,10,26,16,43,8.20
2017,10,26,16,44,8.20
2017,10,26,16,45,8.20
2017,10,26,16,46,8.20
2017,10,26,16,47,8.20
2017,10,26,16,48,8.20
2017,10,26,16,49,8.20
2017,10,26,16,50,8.20
2017,10,26,16,51,8.20
2017,10,26,16,52,8.20
2017,10,26,16,53,8.20
2017,10,26,16,54,8.20
2017,10,26,16,55,8.20
2017,10,26,16,56,8.10
2017,10,26,16,57,8.10
2017,10,26,16,58,8.10
2017,10,26,16,59,8.10
2017,10,26,17,00,8.10
2017,10,26,17,01,8.10
2017,10,26,17,02,8.10
2017,10,26,17,03,8.10
2017,10,26,17,04,8.10
2017,10,26,17,05,8.10
2017,10,26,17,06,8.10
2017,10,26,17,07,8.10
2017,10,26,17,08,8.10
2017,10,26,17,09,8.10
2017,10,26,17,10,8.10
2017,10,26,17,11,8.10
2017,10,26,17,12,8.10
2017,10,26,17,13,8.00
2017,10,26,17,14,8.00
2017,10,26,17,15,8.00
2017,10,26,17,16,8.00
2017,10,26,17,17,8.00
2017,10,26,17,18,8.00
2017,10,26,17,19,8.00
2017,10,26,17,20,8.00
2017,10,26,17,21,7.90
2017,10,26,17,22,7.90
2017,10,26,17,23,7.90
2017,10,26,17,24,7.90
2017,10,26,17,25,7.90
2017,10,26,17,26,7.90
2017,10,26,17,27,7.90
2017,10,26,17,28,7.90
2017,10,26,17,29,7.90
2017,10,26,17,30,7.80
2017,10,26,17,31,7.80
2017,10,26,17,32,7.80
2017,10,26,17,33,7.80
2017,10,26,17,34,7.80
2017,10,26,17,35,7.80
2017,10,26,17,36,7.80
2017,10,26,17,37,7.80
2017,10,26,17,38,7.80
2017,10,26,17,39,7.80
2017,10,26,17,40,7.80
2017,10,26,17,41,7.80
2017,10,26,17,42,7.80
2017,10,26,17,43,7.80
2017,10,26,17,44,7.70
2017,10,26,17,45,7.70
2017,10,26,17,46,7.70
2017,10,26,17,47,7.70
2017,10,26,17,48,7.80
2017,10,26,17,49,7.80
2017,10,26,17,50,7.80
2017,10,26,17,51,7.80
2017,10,26,17,52,7.80
2017,10,26,17,53,7.80
2017,10,26,17,54,7.80
2017,10,26,17,55,7.80
2017,10,26,17,56,7.80
2017,10,26,17,57,7.80
2017,10,26,17,58,7.70
2017,10,26,17,59,7.70
2017,10,26,18,00,7.70
2017,10,26,18,01,7.70